World > North America > United States > Illinois

Ferges, Illinois Regional Weather

Lat: 37.82N, Lon: 88.92W
Wx Zone: ILZ085Web Search
Ferges Weather Warning NWS WEATHER ALERT FOR THE FERGES, IL AREA - WIND ADVISORY Issued: 614 AM CDT Sun May 9 2021 Ferges Weather Warning  

Ads allow us to feed your daily addiction for the world's greatest weather information. We're determined to offer quality sponsors, in the least annoying way possible.

Feedback


°F Click to change Ferges hourly weather to Imperial units.Click to change Ferges hourly weather to Metric units. °C
Ferges Weather Map
UTC Time: 5/9/2021, 17:17
Your Time:

Ferges, IL Regional Weather

Expires:202105091800;;848692
ASUS43 KLOT 091709
RWRIL 

ILLINOIS REGIONAL WEATHER ROUNDUP
NATIONAL WEATHER SERVICE CHICAGO/ROMEOVILLE IL
1200 PM CDT SUN MAY 09 2021

NOTE: "FAIR" INDICATES FEW OR NO CLOUDS BELOW 12,000 FEET WITH NO
SIGNIFICANT WEATHER AND/OR OBSTRUCTIONS TO VISIBILITY.

* THESE STATIONS ARE NOT UNDER NWS QUALITY CONTROL. THEY ALSO MAY NOT
  REPORT WEATHER SUCH AS PRECIPITATION OR FOG.


ILZ064>066-069>071-074>076-080>082-084>086-088>090-092>094-091800-
SOUTH-CENTRAL ILLINOIS
  
CITY           SKY/WX    TMP DP  RH WIND       PRES   REMARKS
CARBONDALE     LGT RAIN  58  56  93 N10G22    29.68R                  
CAIRO*         CLOUDY    65  63  93 SW10      29.78R                  
EFFINGHAM*     CLOUDY    49  47  91 NW17G24   29.72R                  
MARION         CLOUDY    66  59  77 W15G29    29.71R                  
MT. VERNON     CLOUDY    57  55  93 VRB6G17   29.70R                  
CENTRALIA*     CLOUDY    53  50  89 NW13G23   29.70R                  
SALEM*         CLOUDY    54  51  92 NW14G23   29.72R                  
$$


SKY/WX - Weather  TMP - Temperature  DP - Dew Point  RH - Relative Humidity
WIND - Wind Direction/Speed PRES - Barometric Pressure VSB - Visibility
WCI - Wind Chill Index E13G22 Wind - East Wind 13 mph/Gusts of 22 mph